| time (UTC) | temp F | wind direction | speed knots | gust knots | rain 1hr in | rain 24hr in | rain mn in | humidity % | barometer mb |
| 20260503050001 | 46 | 271 | 1.7 | 5.2 | 0.00 | 0.01 | 0.00 | 57 | 1010.9 |
| 20260503044500 | 46 | 251 | 2.6 | 4.3 | 0.00 | 0.01 | 0.00 | 57 | 1011.0 |
| 20260503043000 | 46 | 264 | 1.7 | 4.3 | 0.00 | 0.01 | 0.00 | 57 | 1011.3 |
| 20260503041500 | 46 | 322 | 1.7 | 3.5 | 0.00 | 0.01 | 0.00 | 56 | 1011.4 |
| 20260503035959 | 46 | 326 | 1.7 | 3.5 | 0.00 | 0.01 | 0.01 | 55 | 1011.3 |
| 20260503034500 | 46 | 234 | 0.9 | 2.6 | 0.00 | 0.01 | 0.01 | 56 | 1011.3 |
| 20260503032959 | 46 | 339 | 0.0 | 3.5 | 0.00 | 0.01 | 0.01 | 56 | 1011.3 |
| 20260503031459 | 47 | 292 | 0.0 | 1.7 | 0.00 | 0.01 | 0.01 | 54 | 1011.3 |
| 20260503030000 | 47 | 300 | 0.9 | 5.2 | 0.00 | 0.01 | 0.01 | 53 | 1011.4 |
| 20260503024459 | 48 | 276 | 1.7 | 8.7 | 0.00 | 0.01 | 0.01 | 52 | 1011.3 |
| 20260503022959 | 48 | 313 | 1.7 | 5.2 | 0.00 | 0.01 | 0.01 | 52 | 1011.4 |
| 20260503021500 | 48 | 311 | 0.9 | 4.3 | 0.00 | 0.01 | 0.01 | 53 | 1011.4 |
| 20260503020002 | 48 | 287 | 0.9 | 3.5 | 0.00 | 0.01 | 0.01 | 53 | 1011.5 |
| 20260503014501 | 49 | 267 | 2.6 | 6.1 | 0.00 | 0.01 | 0.01 | 50 | 1011.4 |
| 20260503013001 | 50 | 304 | 1.7 | 5.2 | 0.00 | 0.01 | 0.01 | 50 | 1011.4 |
| 20260503010001 | 50 | 285 | 2.6 | 6.1 | 0.00 | 0.01 | 0.01 | 47 | 1011.2 |
| 20260503004459 | 50 | 297 | 2.6 | 5.2 | 0.00 | 0.01 | 0.01 | 48 | 1011.0 |
| 20260503003000 | 50 | 287 | 1.7 | 5.2 | 0.00 | 0.01 | 0.01 | 48 | 1010.9 |
| 20260503001500 | 51 | 314 | 0.9 | 4.3 | 0.00 | 0.01 | 0.01 | 48 | 1010.7 |
| 20260502235959 | 52 | 302 | 1.7 | 3.5 | 0.00 | 0.01 | 0.01 | 47 | 1010.6 |
| 20260502234459 | 52 | 290 | 1.7 | 4.3 | 0.00 | 0.01 | 0.01 | 45 | 1010.5 |
| 20260502233000 | 52 | 300 | 2.6 | 6.1 | 0.00 | 0.01 | 0.01 | 44 | 1010.5 |
| 20260502230001 | 54 | 314 | 2.6 | 4.3 | 0.00 | 0.01 | 0.01 | 42 | 1010.4 |
| 20260502224500 | 54 | 276 | 2.6 | 8.7 | 0.00 | 0.01 | 0.01 | 42 | 1010.4 |
| 20260502223001 | 54 | 186 | 2.6 | 6.1 | 0.00 | 0.01 | 0.01 | 44 | 1010.2 |
| 20260502215959 | 55 | 240 | 2.6 | 5.2 | 0.00 | 0.01 | 0.01 | 40 | 1010.2 |
| 20260502214459 | 56 | 286 | 1.7 | 7.0 | 0.00 | 0.01 | 0.01 | 42 | 1010.2 |
| 20260502213000 | 55 | 1 | 3.5 | 7.0 | 0.00 | 0.01 | 0.01 | 41 | 1010.1 |
| 20260502211459 | 57 | 257 | 4.3 | 8.7 | 0.00 | 0.01 | 0.01 | 40 | 1009.7 |
| 20260502210001 | 56 | 282 | 3.5 | 10.4 | 0.00 | 0.01 | 0.01 | 40 | 1009.6 |
| 20260502204459 | 56 | 238 | 3.5 | 10.4 | 0.00 | 0.01 | 0.01 | 42 | 1009.6 |
| 20260502201459 | 56 | 304 | 4.3 | 10.4 | 0.00 | 0.01 | 0.01 | 45 | 1009.8 |
| 20260502195958 | 55 | 319 | 2.6 | 7.8 | 0.00 | 0.01 | 0.01 | 44 | 1010.1 |
| 20260502194459 | 55 | 119 | 3.5 | 6.1 | 0.00 | 0.01 | 0.01 | 44 | 1010.3 |
| 20260502192958 | 55 | 268 | 3.5 | 7.0 | 0.00 | 0.01 | 0.01 | 43 | 1010.6 |
| 20260502191458 | 56 | 326 | 3.5 | 8.7 | 0.00 | 0.01 | 0.01 | 42 | 1010.8 |
| 20260502185959 | 56 | 286 | 2.6 | 8.7 | 0.00 | 0.01 | 0.01 | 45 | 1011.1 |
| 20260502184459 | 55 | 91 | 1.7 | 5.2 | 0.00 | 0.01 | 0.01 | 50 | 1011.2 |
| 20260502182959 | 54 | 359 | 3.5 | 8.7 | 0.00 | 0.01 | 0.01 | 47 | 1011.3 |
| 20260502163000 | 53 | 101 | 4.3 | 10.4 | 0.00 | 0.01 | 0.01 | 52 | 1012.2 |
| 20260502161501 | 52 | 55 | 3.5 | 7.8 | 0.00 | 0.01 | 0.01 | 54 | 1012.3 |
| 20260502151500 | 50 | 249 | 3.5 | 11.3 | 0.00 | 0.01 | 0.01 | 65 | 1012.4 |
| 20260502123000 | 45 | 288 | 2.6 | 9.6 | 0.00 | 0.01 | 0.01 | 86 | 1012.3 |
| 20260502121500 | 45 | 241 | 2.6 | 7.8 | 0.00 | 0.01 | 0.01 | 85 | 1012.1 |
| 20260502113000 | 45 | 304 | 2.6 | 6.1 | 0.00 | 0.01 | 0.01 | 72 | 1011.7 |
| 20260502111500 | 46 | 248 | 2.6 | 5.2 | 0.00 | 0.01 | 0.01 | 68 | 1011.8 |
| 20260502110001 | 45 | 239 | 1.7 | 3.5 | 0.00 | 0.01 | 0.01 | 68 | 1011.5 |
| 20260502104501 | 45 | 236 | 1.7 | 3.5 | 0.00 | 0.01 | 0.01 | 67 | 1011.4 |
| 20260502102959 | 44 | 345 | 0.9 | 1.7 | 0.00 | 0.01 | 0.01 | 70 | 1011.4 |
| 20260502091500 | 45 | 316 | 0.9 | 1.7 | 0.00 | 0.01 | 0.01 | 81 | 1010.8 |
| 20260502065959 | 48 | 303 | 2.6 | 6.1 | 0.00 | 0.00 | 0.00 | 84 | 1011.0 |
| 20260502064459 | 49 | 255 | 3.5 | 7.8 | 0.00 | 0.00 | 0.00 | 83 | 1011.3 |
| 20260502062958 | 50 | 285 | 2.6 | 7.8 | 0.00 | 0.00 | 0.00 | 80 | 1011.4 |
| 20260502061500 | 50 | 271 | 1.7 | 8.7 | 0.00 | 0.00 | 0.00 | 79 | 1011.5 |
| 20260502060001 | 50 | 327 | 1.7 | 3.5 | 0.00 | 0.00 | 0.00 | 77 | 1011.6 |
| 20260502054500 | 50 | 268 | 1.7 | 3.5 | 0.00 | 0.00 | 0.00 | 77 | 1011.5 |
| 20260502053001 | 50 | 330 | 0.9 | 2.6 | 0.00 | 0.00 | 0.00 | 78 | 1011.6 |
| 20260502051456 | 50 | 330 | 0.9 | 1.7 | 0.00 | 0.00 | 0.00 | 77 | 1011.5 |